Location: Unspecified
(0.0000°N, 0.0000°E)
Time: 08:02:53
(UTC+00:00)

Tiangong - Pass Details

Date: 24 July 2021
Orbit: 373 x 386 km, 41.5° (Epoch: 01 August)

Event Time Altitude Azimuth Distance (km) Brightness Sun altitude
Rises 18:39:12 0° 333° (NNW) 2,218 5.7 -7.7°
Reaches altitude 10° 18:41:30 10° 348° (NNW) 1,369 4.3 -8.2°
Maximum altitude 18:44:02 23° 44° (NE) 847 2.6 -8.8°
Enters shadow 18:46:09 12° 94° (E) 1,235 3.0 -9.3°
